{"data":{"norad_id":57793,"intl_designator":"2023-135B","name":"TIANQI-22","alt_names":[],"object_type":"PAYLOAD","status":"ACTIVE","operator":null,"country":"PRC","launch_date":"2023-09-05","launch_site_code":"SEAL","launch_vehicle":null,"mission":null,"orbit_class":"UNKNOWN","rcs_meters":null,"size_class":null,"mass_kg":null,"dimensions":null,"purposes":[],"wikipedia_slug":null,"has_3d_model":false,"image_url":null,"decayed_at":null,"tle_current":{"epoch":"2026-05-25T03:38:17.814912Z","epoch_age_seconds":72344,"freshness":"FRESH","line1":"1 57793U 23135B   26145.15159508  .00000039  00000+0  87234-4 0  9996","line2":"2 57793  49.9685 249.4560 0013730 180.7863 179.3029 14.23107586141342","mean_motion":14.23107586,"eccentricity":0.001373,"inclination_deg":49.9685,"raan_deg":249.456,"arg_perigee_deg":180.7863,"mean_anomaly_deg":179.3029,"bstar":8.7234e-5,"rev_number":14134,"period_min":101.18700892091,"perigee_km":804.98632548081,"apogee_km":824.73830159579,"semimajor_km":7192.9993135383,"source":"CELESTRAK","updated_at":"2026-05-25T13:38:00.270788Z"}}}